Location: Gedeier
(47.1667°N, 11.4500°E)
Time: 22:28:54
(UTC+00:00)

Daily predictions for brighter satellites

Satellite Brightness Start Highest point End
(mag) Time Altitude Azimuth Time Altitude Azimuth Time Altitude Azimuth
NOSS 3-2 (A) 4.1 17:21:40 10° NW 17:29:04 70° NE 17:37:27 10° SE
Cosmos 2082 Rocket 4.2 17:33:26 10° NNE 17:35:03 11° NNE 17:36:40 10° NE
Meteor 1-21 4.4 17:31:12 10° NNW 17:36:49 80° W 17:42:24 10° S
Cosmos 2151 Rocket 4.4 17:35:10 10° SSE 17:39:03 30° E 17:42:59 10° NNE
Lacrosse 5 rocket 3.3 17:36:15 10° WNW 17:39:43 23° N 17:43:17 10° NE
Cosmos 1975 Rocket 3.2 17:35:48 10° NNW 17:40:08 80° W 17:44:27 10° S
HJ-1C 4.0 17:41:25 10° SE 17:44:26 34° ENE 17:47:28 10° N
COSMO-SKYMED 1 3.2 17:45:32 10° N 17:49:51 63° WNW 17:54:08 10° SSW
Nadezhda 4 Rocket 4.2 17:47:00 10° N 17:52:54 47° ENE 17:58:46 10° SSE
Ariane Rocket 4.0 17:48:48 10° ESE 17:53:00 27° ENE 17:57:13 10° N
Cosmos 1689 Rocket 4.4 17:50:58 10° N 17:53:38 30° WNW 17:56:16 10° SW
H-2A R/B 2.1 17:48:53 10° SSE 17:53:44 54° ENE 17:58:46 10° N
SJ 16-02 4.2 17:52:49 10° W 17:55:45 17° NW 17:58:42 10° NNW
Exosat Rocket 4.2 17:53:10 10° SSE 17:57:56 32° ESE 18:02:21 10° NE
Cosmos 2263 Rocket 3.7 17:53:50 10° WSW 17:59:01 39° NW 18:04:16 10° NNE
USA 116 3.6 17:56:26 10° NNE 18:00:05 64° ESE 18:04:13 10° S
COSMOS 2406 4.3 17:57:14 10° N 18:02:02 27° NE 18:05:51 14° E
Cosmos 1844 Rocket 2.7 17:57:50 10° S 18:03:17 60° ESE 18:08:47 10° NNE
Cosmos 1072 Rocket 4.5 17:57:10 10° S 18:03:25 78° E 18:09:49 10° N
Cosmos 372 Rocket 4.2 17:59:55 10° SSW 18:05:09 77° WNW 18:10:24 10° NNE
Cosmos 1707 3.0 18:01:25 10° NNW 18:05:16 72° W 18:09:04 10° S
Cosmos 1626 3.7 18:04:11 10° NNE 18:06:39 17° ENE 18:07:28 16° E
NOSS 3-2 (C) 4.1 17:59:52 10° NW 18:07:19 76° NE 18:15:47 10° SE
Cosmos 2278 Rocket 4.0 18:10:00 11° ENE 18:10:00 11° ENE 18:10:38 10° ENE
Cosmos 1844 3.8 18:05:12 10° S 18:10:44 55° ESE 18:16:15 10° NE
Cosmos 2034 Rocket 4.1 18:04:43 10° S 18:10:56 60° E 18:17:09 10° NNE
ISS -2.9 18:08:45 10° W 18:12:02 47° NNW 18:14:49 13° ENE
NOSS 3-4 (A) 4.0 18:07:03 10° S 18:12:15 33° ESE 18:17:42 10° NE
NOSS 3-4 (C) 4.0 18:07:11 10° S 18:12:21 33° ESE 18:17:48 10° NE
USA 186 2.7 18:11:04 18° ESE 18:12:49 30° ENE 18:15:44 10° N
Meteor 2-5 Rocket 4.3 18:07:49 10° N 18:13:07 38° ENE 18:18:15 11° SE
Meteor 1-12 Rocket 4.3 18:08:29 10° S 18:14:22 89° E 18:20:10 10° NNE
Lacrosse 4 Rocket 3.5 18:13:07 10° N 18:15:03 13° NE 18:16:33 11° ENE
Cosmos 1300 Rocket 3.7 18:15:15 10° SSW 18:19:40 79° W 18:24:08 10° N
Okean 1 Rocket 3.5 18:18:43 10° SSE 18:22:53 39° E 18:27:05 10° NNE
SL-14 R/B 4.4 18:22:31 10° NNE 18:25:49 25° ENE 18:26:27 24° E
Resurs 01 Rocket 3.3 18:25:51 17° ENE 18:26:23 17° ENE 18:29:12 10° NNE
CENTAUR R/B 3.2 18:18:21 10° NW 18:26:25 87° NE 18:34:46 12° SE
Cosmos 2298 Rocket 4.3 18:21:06 10° SSW 18:26:26 75° WNW 18:31:48 10° NNE
Cosmos 1833 Rocket 3.7 18:22:37 10° NNW 18:27:36 30° NE 18:30:12 21° E
CSL-04 Rocket 4.2 18:26:29 10° S 18:31:53 63° WSW 18:37:23 10° NNW
Cosmos 1766 3.6 18:30:12 10° SSE 18:33:53 41° E 18:37:38 10° NNE
Okean 2 Rocket 3.9 18:29:51 10° SSW 18:34:15 55° WNW 18:38:40 10° N
YAOGAN 1 4.3 18:30:42 10° SSW 18:34:38 34° W 18:38:37 10° NNW
Cosmos 1025 Rocket 3.9 18:30:21 10° NNW 18:34:39 53° W 18:38:55 10° S
ATLAS 2AS CENTAUR R/B 3.2 18:27:10 10° S 18:34:42 49° ESE 18:42:13 10° NE
ATLAS 3B R/B 3.2 18:32:07 10° NNW 18:38:40 46° NE 18:42:34 24° E
Cosmos 1634 Rocket 4.2 18:32:57 10° SSE 18:38:43 44° E 18:44:33 10° NNE
Abrixas rocket 2.1 18:39:02 10° W 18:41:49 53° SSW 18:42:11 48° S
SPOT 3 Rocket 4.3 18:40:10 27° E 18:41:49 33° ENE 18:46:24 10° N
CREW DRAGON DEMO-1 DEB 3.1 18:40:43 10° WNW 18:43:42 59° SSW 18:44:16 47° SSE
Cosmos 1536 Rocket 4.2 18:40:03 10° NNW 18:44:26 57° W 18:48:49 10° S
Cosmos 1125 Rocket 3.6 18:41:44 10° SSW 18:47:03 80° WNW 18:52:25 10° NNE
EP 2 4.4 18:45:23 10° SSW 18:48:22 71° SE 18:48:34 67° E
Resurs 1-3 4.2 18:48:54 35° E 18:49:35 37° ENE 18:53:39 10° N
SJ-6B 2.6 18:48:31 38° SE 18:49:46 65° ENE 18:53:32 10° N
Cosmos 1892 Rocket 4.1 18:47:14 10° N 18:51:15 35° ENE 18:51:24 35° E
CZ-4 R/B 4.3 18:49:25 10° SW 18:52:25 19° W 18:55:25 10° NW
Cosmos 2195 Rocket 4.4 18:48:33 10° N 18:54:49 75° E 19:00:07 14° SSE
Cosmos 1627 Rocket 4.5 18:50:02 10° N 18:56:26 71° E 19:01:23 18° SSE
Cosmos 1674 3.3 18:53:03 10° NNW 18:56:50 56° W 19:00:17 12° S
Cosmos 2026 Rocket 4.0 18:51:19 10° N 18:57:41 69° ENE 19:02:16 20° SSE
Cosmos 2285 Rocket 4.0 18:51:27 10° SSW 18:57:45 86° WNW 19:04:11 10° NNE
Cosmos 1092 Rocket 3.9 18:51:41 10° N 18:57:53 87° E 19:04:07 10° S
MOS 1 Rocket 4.1 18:58:36 10° N 19:02:50 47° WNW 19:06:56 10° SW
FREGAT/IRIS 3.8 19:04:41 31° NNW 19:04:41 31° NNW 19:06:13 10° NNW
Cosmos 1428 Rocket 4.4 18:59:58 10° N 19:06:16 74° E 19:10:06 25° SSE
TSX-5 3.9 19:05:08 10° SSW 19:08:59 87° ESE 19:14:00 10° NNE
ARGOS 4.1 19:04:45 10° S 19:09:52 46° W 19:15:04 10° NNW
CZ-2C R/B 2.7 19:07:33 10° NNE 19:13:09 90° ESE 19:18:47 10° SSW
Cosmos 1340 Rocket 3.1 19:15:11 53° NE 19:15:11 53° NE 19:18:23 10° NNE
Cosmos 2279 Rocket 4.1 19:12:59 36° SE 19:15:13 52° E 19:21:17 10° NNE
Cosmos 1733 3.4 19:13:48 23° SSW 19:16:06 71° W 19:19:56 10° N
MOS 1 4.4 19:13:05 20° S 19:17:09 75° WSW 19:22:54 10° NNW
Lacrosse 5 rocket 2.8 19:16:06 10° NW 19:20:00 29° NNE 19:20:43 28° NE
Cosmos 2082 Rocket 2.6 19:15:26 10° NNW 19:20:47 42° NE 19:21:17 41° ENE
Cosmos 2098 Rocket 4.2 19:14:33 10° N 19:20:56 43° ENE 19:21:19 43° E
DMSP B5D2-2 4.0 19:17:40 10° NNE 19:23:00 86° WNW 19:28:16 10° SSW
BREEZE-M DEB (TANK) 4.5 19:20:21 10° W 19:24:00 36° SSW 19:27:36 25° SSE
BREEZE-M R/B 3.3 19:16:11 10° WSW 19:24:17 80° NNW 19:24:25 78° NNE
OBJECT-B 2.3 19:28:48 35° NNW 19:28:48 35° NNW 19:30:50 10° NNW
Cosmos 2142 Rocket 4.3 19:24:37 21° S 19:28:55 76° E 19:35:08 10° NNE
Ariane Rocket 3.9 19:28:06 17° SSW 19:31:43 46° W 19:36:38 10° NNW
Milstar 3 Cent rocket 4.4 19:31:26 10° SSW 19:32:39 11° SSW 19:32:39 11° SSW
H-2A R/B 4.3 19:29:46 10° SW 19:33:33 21° W 19:37:25 10° NW
Terra 4.1 19:42:50 13° NNE 19:42:50 13° NNE 19:43:50 10° NNE
Cosmos 1626 3.4 19:38:37 10° NNW 19:42:02 38° W 19:42:02 38° W
Okean 1-7 Rocket 3.9 19:37:57 10° N 19:41:50 64° N 19:41:50 64° N
Cosmos 1455 Rocket 4.4 19:47:18 30° NNE 19:47:18 30° NNE 19:49:34 10° N
COSMOS 2406 3.5 19:41:09 10° NNW 19:46:45 62° WSW 19:47:55 50° SSW
ISS -1.4 19:46:04 10° WNW 19:47:46 24° NW 19:47:46 24° NW
Cosmos 2278 Rocket 2.1 19:45:27 10° SSW 19:51:33 77° NE 19:56:49 10° NNE
Lacrosse 4 Rocket 2.7 19:50:22 10° NNW 19:52:52 36° NNW 19:52:52 36° NNW
Cosmos 909 Rocket 3.9 19:53:12 10° NNW 19:59:43 74° NE 19:59:55 74° ENE
Cosmos 2266 Rocket 4.0 19:55:14 10° N 20:00:34 61° NE 20:00:34 61° NE
Resurs 01 Rocket 2.5 20:03:26 48° NW 20:03:26 48° NW 20:06:50 10° NNW
NOSS 3-4 (A) 4.0 19:56:58 10° WSW 20:02:48 55° NW 20:09:06 10° NE
NOSS 3-4 (C) 4.0 19:57:04 10° WSW 20:02:54 56° NW 20:09:14 10° NE
Meteor 2-19 Rocket 4.4 19:57:01 10° NNW 20:03:09 76° W 20:03:47 69° SSW
Cosmos 1833 Rocket 3.2 20:06:19 10° NW 20:11:49 53° WSW 20:11:54 53° WSW
Cosmos 2251 Rocket 4.0 20:09:20 10° NNW 20:13:44 59° NW 20:13:44 59° NW
ERS-1 Rocket 4.5 20:17:39 28° NNE 20:17:39 28° NNE 20:20:14 10° N
ARIANE 5 R/B 4.3 20:20:05 29° NNW 20:20:05 29° NNW 20:22:16 10° NNW
ATLAS 2AS CENTAUR R/B 3.6 20:17:58 10° WSW 20:25:45 54° NW 20:33:25 10° NE
ATLAS 3B R/B 3.2 20:22:52 10° NW 20:29:30 51° WSW 20:29:50 51° SW
SPOT 5 4.5 20:33:48 32° N 20:33:48 32° N 20:36:42 10° N
Lacrosse 5 rocket 4.2 20:55:10 10° NW 20:56:20 18° NW 20:56:20 18° NW
Cosmos 2082 Rocket 3.8 20:59:43 10° NW 21:03:08 29° WNW 21:03:08 29° WNW
Terra 4.4 21:21:45 17° NNW 21:21:45 17° NNW 21:22:54 10° NNW
Cosmos 2278 Rocket 4.4 21:33:01 15° W 21:35:57 21° NW 21:40:11 10° N
SL-16 R/B 4.3 23:50:37 26° NNE 23:50:37 26° NNE 23:53:43 10° N
